| time (UTC) | temp F | wind direction | speed knots | gust knots | rain 1hr in | rain 24hr in | rain mn in | humidity % | barometer mb |
| 20260505034529 | 80 | 263 | 10.4 | 13.9 | 0.00 | 0.00 | 0.00 | 21 | 996.2 |
| 20260505033044 | 80 | 245 | 11.3 | 13.9 | 0.00 | 0.00 | 0.00 | 22 | 995.7 |
| 20260505031529 | 80 | 252 | 12.2 | 13.9 | 0.00 | 0.00 | 0.00 | 21 | 995.6 |
| 20260505030029 | 80 | 243 | 13.0 | 14.8 | 0.00 | 0.00 | 0.00 | 22 | 995.5 |
| 20260505024522 | 80 | 253 | 14.8 | 18.2 | 0.00 | 0.00 | 0.00 | 21 | 995.6 |
| 20260505023022 | 81 | 250 | 13.9 | 19.1 | 0.00 | 0.00 | 0.00 | 21 | 995.6 |
| 20260505021520 | 81 | 254 | 17.4 | 22.6 | 0.00 | 0.00 | 0.00 | 20 | 995.3 |
| 20260505020019 | 82 | 254 | 21.7 | 28.7 | 0.00 | 0.00 | 0.00 | 19 | 995.2 |
| 20260505014522 | 82 | 262 | 20.0 | 26.1 | 0.00 | 0.00 | 0.00 | 19 | 995.2 |
| 20260505013020 | 82 | 268 | 21.7 | 26.1 | 0.00 | 0.00 | 0.00 | 18 | 995.1 |
| 20260505011520 | 83 | 248 | 17.4 | 30.4 | 0.00 | 0.00 | 0.00 | 18 | 995.2 |
| 20260505010016 | 84 | 259 | 24.3 | 33.0 | 0.00 | 0.00 | 0.00 | 17 | 994.9 |
| 20260505004536 | 84 | 252 | 24.3 | 32.2 | 0.00 | 0.00 | 0.00 | 16 | 995.2 |
| 20260505003020 | 85 | 265 | 27.8 | 36.5 | 0.00 | 0.00 | 0.00 | 16 | 994.9 |
| 20260505001521 | 85 | 266 | 30.4 | 39.1 | 0.00 | 0.00 | 0.00 | 16 | 995.2 |
| 20260505000022 | 86 | 269 | 26.1 | 35.6 | 0.00 | 0.00 | 0.00 | 16 | 995.1 |
| 20260504234528 | 86 | 273 | 27.8 | 34.8 | 0.00 | 0.00 | 0.00 | 16 | 995.4 |
| 20260504233019 | 86 | 243 | 23.5 | 33.0 | 0.00 | 0.00 | 0.00 | 16 | 995.8 |
| 20260504231532 | 85 | 275 | 18.2 | 27.8 | 0.00 | 0.00 | 0.00 | 16 | 996.1 |
| 20260504230016 | 85 | 277 | 19.1 | 28.7 | 0.00 | 0.00 | 0.00 | 15 | 996.2 |
| 20260504224518 | 85 | 261 | 23.5 | 30.4 | 0.00 | 0.00 | 0.00 | 15 | 996.3 |
| 20260504223015 | 85 | 257 | 20.0 | 27.8 | 0.00 | 0.00 | 0.00 | 15 | 996.5 |
| 20260504221512 | 85 | 270 | 15.6 | 30.4 | 0.00 | 0.00 | 0.00 | 15 | 996.8 |
| 20260504220012 | 86 | 284 | 24.3 | 30.4 | 0.00 | 0.00 | 0.00 | 15 | 996.9 |
| 20260504214516 | 86 | 261 | 21.7 | 26.9 | 0.00 | 0.00 | 0.00 | 13 | 996.9 |
| 20260504213010 | 86 | 281 | 25.2 | 33.0 | 0.00 | 0.00 | 0.00 | 13 | 997.0 |
| 20260504211503 | 85 | 261 | 24.3 | 33.0 | 0.00 | 0.00 | 0.00 | 13 | 997.3 |
| 20260504210001 | 86 | 284 | 24.3 | 31.3 | 0.00 | 0.00 | 0.00 | 13 | 997.4 |
| 20260504204638 | 86 | 261 | 23.5 | 33.0 | 0.00 | 0.00 | 0.00 | 12 | 997.7 |
| 20260504203059 | 85 | 262 | 20.0 | 34.8 | 0.00 | 0.00 | 0.00 | 14 | 997.8 |
| 20260504201559 | 85 | 254 | 24.3 | 34.8 | 0.00 | 0.00 | 0.00 | 13 | 998.2 |
| 20260504200057 | 85 | 265 | 24.3 | 34.8 | 0.00 | 0.00 | 0.00 | 13 | 998.3 |
| 20260504194555 | 85 | 262 | 23.5 | 36.5 | 0.00 | 0.00 | 0.00 | 15 | 998.6 |
| 20260504193049 | 84 | 277 | 25.2 | 31.3 | 0.00 | 0.00 | 0.00 | 16 | 999.0 |
| 20260504191544 | 83 | 270 | 16.5 | 29.5 | 0.00 | 0.00 | 0.00 | 17 | 999.2 |
| 20260504190047 | 82 | 242 | 19.1 | 30.4 | 0.00 | 0.00 | 0.00 | 21 | 999.4 |
| 20260504184539 | 82 | 273 | 20.0 | 32.2 | 0.00 | 0.00 | 0.00 | 24 | 999.7 |
| 20260504183034 | 81 | 265 | 22.6 | 28.7 | 0.00 | 0.00 | 0.00 | 26 | 999.9 |
| 20260504181551 | 80 | 267 | 20.0 | 25.2 | 0.00 | 0.00 | 0.00 | 26 | 1000.2 |
| 20260504180049 | 79 | 252 | 16.5 | 24.3 | 0.00 | 0.00 | 0.00 | 27 | 1000.5 |
| 20260504174551 | 79 | 279 | 20.0 | 26.1 | 0.00 | 0.00 | 0.00 | 25 | 1000.9 |
| 20260504173046 | 79 | 286 | 17.4 | 26.1 | 0.00 | 0.00 | 0.00 | 28 | 1000.9 |
| 20260504171543 | 79 | 299 | 20.9 | 29.5 | 0.00 | 0.00 | 0.00 | 27 | 1000.9 |
| 20260504081558 | 63 | 16 | 5.2 | 7.8 | 0.00 | 0.00 | 0.00 | 65 | 1001.4 |
| 20260504044527 | 69 | 142 | 13.0 | 17.4 | 0.00 | 0.00 | 0.00 | 49 | 1002.4 |
| 20260504043024 | 70 | 136 | 15.6 | 20.0 | 0.00 | 0.00 | 0.00 | 48 | 1002.4 |
| 20260504041528 | 70 | 139 | 14.8 | 20.9 | 0.00 | 0.00 | 0.00 | 47 | 1002.6 |
| 20260504040024 | 71 | 144 | 14.8 | 19.1 | 0.00 | 0.00 | 0.00 | 46 | 1002.7 |